User: anonymous
Location: Unspecified
(0.0000°N, 0.0000°E)
Time: 13:08:47
(UTC+00:00)
Language:

WGS F3 (USA 211) - Orbit

View from above orbital plane
View from above orbital plane
View from above satellite
View from above satellite

Ground track
Ground track

The orbit data is extracted from the following two-line orbital elements,

1 36108U 09068A   14172.13933285 0.00000000  00000-0  00000-0 0    03
2 36108   0.0147 307.5322 0006565 347.6920  12.2490  1.00270000    05
Epoch (UTC): 21 June 2014 03:20:38
Eccentricity: 0.0006565
inclination: 0.0147°
perigee height: 35759 km
apogee height: 35814 km
right ascension of ascending node: 307.5322°
argument of perigee: 347.6920°
revolutions per day: 1.00270000
mean anomaly at epoch: 12.2490°
orbit number at epoch: 0

The dashed part of the orbit path shows where the satellite is in the earth's shadow,  

DLR